Assumption Island Airport

Jump to: basic info | weather | runways | comments

Related pages: nearby airports | nearby navaids | notams | map

Basic information (top)

Codes: FSAS
Location: lon -9.742220, lat 46.506802, elev 10 ft / 3 m msl
Status: small_airport

Weather (top)

Current conditions for Prince Said Ibrahim International Airport 219nm (406km) WSW (rec'd 2014/10/25 15:00Z):

FMCH 251500Z 18012KT 9999 FEW022 28/23 Q1012 NOSIG

Airport forecast for Prince Said Ibrahim International Airport 219nm (406km) WSW (rec'd 2014/10/25 12:00Z):

TAF FMCH 251100Z 2512/2618 20010KT 9999 FEW020 SCT030 
      BECMG 2518/2520 09004KT 
      BECMG 2605/2607 22010KT PROB30 
      TEMPO 2610/2615 SHRA

Runways (top)

13/31: 3,963 x 75 ft (1,208 x 23 m) — paved — not lighted

Latest comments (top)

No comments yet for Assumption Island Airport

More... (top)

See also NOTAMs and nearby airports and navaids, or visit the Assumption Island Airport page at the main OurAirports website..